FENGYUN 1C DEB, 30282

Orbit data source: Space-Track

FENGYUN 1C DEB, 30282 is space debris in SSO originally from a launch on Mon, 10 May 1999 UTC launched from the Taiyaun Space Center, China (TSC). Fengyun 1C debris stems from the Chinese weather satellite Fengyun-1C, which was intentionally destroyed by a Chinese anti-satellite missile in 2007. This event dramatically increased the amount of space debris, with thousands of trackable fragments posing hazards to satellites and human spaceflight. The Fengyun 1C debris cloud has become a focal point in discussions about space sustainability and the need for international regulations to prevent the creation of new debris.

Loading next visibility...
Identifier
30282, 1999-025YT
Orbit
SSO
Country
Flag of CNCN / PRC
Related business
Manufacturer
Unknown
Mission
Spacecraft
Bus & Motor
Unknown
Mass
Unknown
Launch date (UTC)
1999-05-10 (27 years ago)
Launch vehicle
Unknown
Launch site
Taiyaun Space Center, China (TSC)
Object type
Payload
Rocket body
Debris
Shape & HBR
Unknown shape, 0.1 m
Radar Cross Section
Medium (>0.1 m² and <1 m²)

Expand to show TLE details & history
Last TLE update: 15 hours ago

TLE from 15 hours ago
0 FENGYUN 1C DEB
1 30282U 99025YT  26207.95546421  .00000553  00000-0  25641-3 0  9997
2 30282  98.5065 205.1926 0210889  73.1130 341.3736 14.13234209  5458
Epoch: 2026-07-26T22:55Z
TLE epoch observation values (Epoch: 2026-07-26T22:55:52.107Z)
Latitude
52.94841°
Longitude
-94.78454°
Altitude
712.825 km
Speed
7.579 km/s
True Right ascension
12h 55m 18s
True Declination
52° 46' 55"
Sunlit
Object was in daylight at epoch
Visualization orbit readout
Latitude
Unknown
Longitude
Unknown
Altitude
Unknown
Speed
Unknown
Apparent Right ascension
Unknown
Apparent Declination
Unknown
Sunlit
N/A
Visualization observer readout
Local Sidereal Time
03:40:00
Azimuth
Unknown
Elevation
Unknown
Doppler factor
Unknown
Orbital elements
Apogee altitude
997.82 km
Perigee altitude
693.143 km
Semi-major axis
7,223.619 km
Eccentricity
0.02109
Inclination
98.5065°
RAAN
205.1926°
Arg. of periapsis
73.113°
True anomaly
340.58202°
Mean anomaly
341.3736°
Eccentric anomaly
340.97981°
Mean motion
3.53518 °/min
Orbital period
101.83 mins
BSTAR
0.00025641
Loading maneuver chart data...
Computing Atmospheric mass density...
Loading historical data...
Loading historical data...
Loading historical data...
Loading historical data...
Loading historical data...
Loading historical data...
Loading historical data...

Documentation

Showing up to 5 results
|